TIBDW MRPJ-MRDK

Flight info

Callsign TIBDW
Flight time N/A
Altitude 6000
Route DCT
Aircraft C208/L-SDFGR/C

Departure

Time 2026-04-28 05:14
Airport Puerto Jimenez Airport (MRPJ)

Arrival

Time N/A
Airport Drake Bay Airport (MRDK)
Time Latitude Longitude Altitude Speed Heading
2026-04-28 05:11 8.53247 -83.30008 30 ft 0 kts 343°
2026-04-28 05:13 8.53401 -83.30060 28 ft 56 kts 343°
2026-04-28 05:13 8.53926 -83.30235 87 ft 91 kts 342°
2026-04-28 05:13 8.54488 -83.30450 390 ft 88 kts 339°
2026-04-28 05:14 8.55044 -83.30701 705 ft 84 kts 340°
2026-04-28 05:14 8.55635 -83.30912 883 ft 96 kts
2026-04-28 05:14 8.56172 -83.30567 1066 ft 97 kts 54°
2026-04-28 05:14 8.56638 -83.30046 1238 ft 102 kts 51°
2026-04-28 05:15 8.57050 -83.29449 1330 ft 109 kts 72°
2026-04-28 05:15 8.57345 -83.28687 1327 ft 120 kts 72°
2026-04-28 05:15 8.57681 -83.27865 1320 ft 135 kts 71°
2026-04-28 05:15 8.58044 -83.26967 1478 ft 141 kts 70°
2026-04-28 05:16 8.58416 -83.26041 1637 ft 144 kts 70°
2026-04-28 05:16 8.58787 -83.25107 1781 ft 146 kts 70°
2026-04-28 05:16 8.59166 -83.24155 1927 ft 146 kts 69°
2026-04-28 05:17 8.59916 -83.22203 2011 ft 155 kts 79°
2026-04-28 05:17 8.60062 -83.21150 1765 ft 150 kts 86°
2026-04-28 05:17 8.60178 -83.20107 1512 ft 149 kts 84°
2026-04-28 05:17 8.60396 -83.19102 1276 ft 145 kts 71°
2026-04-28 05:18 8.60870 -83.18254 1106 ft 136 kts 44°
2026-04-28 05:18 8.61572 -83.17638 829 ft 132 kts 45°
2026-04-28 05:18 8.62229 -83.17023 553 ft 126 kts 33°
2026-04-28 05:18 8.63026 -83.16743 489 ft 122 kts 358°
2026-04-28 05:19 8.63774 -83.16928 481 ft 98 kts 340°
2026-04-28 05:19 8.64360 -83.17268 349 ft 98 kts 330°
2026-04-28 05:19 8.64899 -83.17709 105 ft 98 kts 316°
2026-04-28 05:19 8.65329 -83.18131 89 ft 66 kts 321°
2026-04-28 05:20 8.65560 -83.18353 98 ft 39 kts 316°
2026-04-28 05:20 8.65735 -83.18525 72 ft 31 kts 315°
2026-04-28 05:20 8.65840 -83.18624 81 ft 8 kts 334°
2026-04-28 05:20 8.65827 -83.18625 82 ft 0 kts 134°
2026-04-28 05:21 8.65724 -83.18512 71 ft 61 kts 135°
2026-04-28 05:21 8.65282 -83.18101 197 ft 98 kts 138°
2026-04-28 05:22 8.64747 -83.17607 428 ft 108 kts 137°
2026-04-28 05:22 8.64156 -83.17124 705 ft 108 kts 154°
2026-04-28 05:22 8.63363 -83.17092 765 ft 126 kts 202°
2026-04-28 05:22 8.62621 -83.17562 918 ft 129 kts 211°
2026-04-28 05:23 8.61883 -83.18085 1083 ft 129 kts 225°
2026-04-28 05:23 8.61445 -83.18870 1283 ft 132 kts 243°
2026-04-28 05:23 8.61018 -83.19749 1478 ft 145 kts 244°
2026-04-28 05:23 8.60577 -83.20703 1689 ft 152 kts 248°
2026-04-28 05:24 8.60212 -83.21727 1886 ft 157 kts 251°
2026-04-28 05:24 8.59861 -83.22800 1930 ft 165 kts 252°
2026-04-28 05:24 8.59513 -83.23901 1940 ft 168 kts 252°
2026-04-28 05:24 8.59147 -83.25035 1937 ft 171 kts 251°
2026-04-28 05:25 8.58773 -83.26195 1854 ft 178 kts 251°
2026-04-28 05:25 8.58385 -83.27404 1740 ft 182 kts 252°
2026-04-28 05:25 8.58027 -83.28551 1593 ft 157 kts 252°
2026-04-28 05:25 8.57727 -83.29554 1363 ft 142 kts 253°
2026-04-28 05:26 8.57288 -83.30380 1127 ft 128 kts 216°
2026-04-28 05:26 8.56546 -83.30710 825 ft 115 kts 199°
2026-04-28 05:26 8.55824 -83.30782 652 ft 96 kts 174°
2026-04-28 05:26 8.55184 -83.30657 421 ft 93 kts 160°
2026-04-28 05:27 8.54540 -83.30445 289 ft 100 kts 162°
2026-04-28 05:27 8.53900 -83.30228 54 ft 94 kts 161°
2026-04-28 05:27 8.53399 -83.30064 28 ft 47 kts 160°
2026-04-28 05:27 8.53222 -83.30000 30 ft 9 kts 176°
2026-04-28 05:28 8.53223 -83.30002 30 ft 0 kts 342°
2026-04-28 05:29 8.53231 -83.30005 30 ft 15 kts 342°
2026-04-28 05:29 8.53583 -83.30120 27 ft 83 kts 342°
2026-04-28 05:29 8.54202 -83.30335 220 ft 97 kts 340°
2026-04-28 05:30 8.54876 -83.30523 433 ft 105 kts
2026-04-28 05:30 8.55448 -83.30124 655 ft 106 kts 65°
2026-04-28 05:30 8.55787 -83.29428 797 ft 112 kts 64°
2026-04-28 05:30 8.56157 -83.28723 959 ft 114 kts 65°
2026-04-28 05:31 8.56554 -83.27993 1120 ft 125 kts 64°
2026-04-28 05:31 8.56987 -83.27179 1302 ft 136 kts 67°
2026-04-28 05:31 8.57406 -83.26286 1480 ft 145 kts 68°
2026-04-28 05:31 8.57839 -83.25351 1666 ft 149 kts 67°
2026-04-28 05:32 8.58280 -83.24395 1733 ft 156 kts 67°
2026-04-28 05:32 8.58748 -83.23381 1741 ft 161 kts 68°
2026-04-28 05:32 8.59229 -83.22346 1748 ft 164 kts 67°
2026-04-28 05:32 8.59700 -83.21332 1731 ft 151 kts 66°
2026-04-28 05:33 8.60131 -83.20404 1665 ft 144 kts 67°
2026-04-28 05:33 8.60560 -83.19487 1531 ft 144 kts 68°
2026-04-28 05:33 8.61073 -83.18625 1348 ft 142 kts 54°
2026-04-28 05:33 8.61663 -83.17891 1097 ft 131 kts 52°
2026-04-28 05:34 8.62217 -83.17195 853 ft 123 kts 53°
2026-04-28 05:34 8.62787 -83.16599 682 ft 111 kts 22°
2026-04-28 05:34 8.63486 -83.16700 599 ft 105 kts 342°
2026-04-28 05:34 8.64094 -83.17029 464 ft 97 kts 332°
2026-04-28 05:35 8.64633 -83.17429 248 ft 96 kts 320°
2026-04-28 05:35 8.65094 -83.17899 73 ft 88 kts 318°
2026-04-28 05:35 8.65380 -83.18177 91 ft 38 kts 314°
2026-04-28 05:35 8.65555 -83.18349 98 ft 31 kts 316°
2026-04-28 05:36 8.65651 -83.18445 106 ft 27 kts 315°
2026-04-28 05:36 8.65774 -83.18568 82 ft 23 kts 315°
2026-04-28 05:36 8.65845 -83.18636 89 ft 8 kts 301°
2026-04-28 05:36 8.65831 -83.18631 89 ft 9 kts 114°
2026-04-28 05:37 8.65809 -83.18603 86 ft 0 kts 136°
2026-04-28 05:37 8.65792 -83.18586 84 ft 26 kts 134°
2026-04-28 05:37 8.65481 -83.18279 93 ft 91 kts 136°
2026-04-28 05:38 8.64996 -83.17798 321 ft 100 kts 133°
2026-04-28 05:38 8.64461 -83.17310 596 ft 103 kts 144°
2026-04-28 05:38 8.63740 -83.17008 690 ft 118 kts 174°
2026-04-28 05:38 8.62939 -83.17250 812 ft 125 kts 210°
2026-04-28 05:39 8.62188 -83.17690 976 ft 125 kts 210°
2026-04-28 05:39 8.61394 -83.18140 1132 ft 138 kts 208°
2026-04-28 05:39 8.60622 -83.18758 1325 ft 148 kts 236°
2026-04-28 05:39 8.60218 -83.19726 1516 ft 155 kts 250°
2026-04-28 05:40 8.59847 -83.20773 1637 ft 163 kts 250°
2026-04-28 05:40 8.59454 -83.21874 1635 ft 168 kts 250°
2026-04-28 05:40 8.59058 -83.22987 1636 ft 169 kts 250°
2026-04-28 05:40 8.58657 -83.24103 1641 ft 169 kts 250°
2026-04-28 05:41 8.58252 -83.25219 1640 ft 171 kts 250°
2026-04-28 05:41 8.57882 -83.26378 1636 ft 172 kts 254°
2026-04-28 05:41 8.57551 -83.27548 1567 ft 176 kts 254°
2026-04-28 05:41 8.57258 -83.28731 1376 ft 165 kts 259°
2026-04-28 05:42 8.57129 -83.29816 1147 ft 147 kts 265°
2026-04-28 05:42 8.56790 -83.30697 952 ft 131 kts 225°
2026-04-28 05:42 8.56044 -83.30928 770 ft 110 kts 166°
2026-04-28 05:42 8.55365 -83.30744 587 ft 98 kts 163°
2026-04-28 05:43 8.54715 -83.30509 358 ft 98 kts 162°
2026-04-28 05:43 8.54088 -83.30291 123 ft 93 kts 162°
2026-04-28 05:43 8.53544 -83.30109 28 ft 57 kts 162°
2026-04-28 05:43 8.53306 -83.30029 29 ft 21 kts 147°
2026-04-28 05:44 8.53527 -83.30104 28 ft 0 kts 161°